Time,TemperatureF,DewpointF,PressureIn,WindDirection,WindDirectionDegrees,WindSpeedMPH,WindSpeedGustMPH,Humidity,HourlyPrecipIn,Conditions,Clouds,dailyrainin,SoftwareType,DateUTC
2013-07-31 00:12:00,72.0,41.0,-100.00,East,86,2.0,5.0,32,-99.99,,,-99.99,,2013-07-31 07:12:00,
2013-07-31 00:32:00,71.0,40.0,-100.00,North,11,2.0,4.0,33,-99.99,,,-99.99,,2013-07-31 07:32:00,
2013-07-31 00:52:00,71.0,41.0,-100.00,East,99,5.0,7.0,34,-99.99,,,-99.99,,2013-07-31 07:52:00,
2013-07-31 01:02:00,66.0,46.0,-100.00,SSE,148,1.0,3.0,48,-99.99,,,-99.99,,2013-07-31 08:02:00,
2013-07-31 01:12:00,66.0,46.0,-100.00,SSE,148,1.0,3.0,48,-99.99,,,-99.99,,2013-07-31 08:12:00,
2013-07-31 01:22:00,66.0,46.0,-100.00,SW,229,0.0,3.0,48,-99.99,,,-99.99,,2013-07-31 08:22:00,
2013-07-31 01:32:00,66.0,45.0,-100.00,SW,229,0.0,3.0,48,-99.99,,,-99.99,,2013-07-31 08:32:00,
2013-07-31 01:42:00,65.0,45.0,-100.00,NNW,333,0.0,2.0,49,-99.99,,,-99.99,,2013-07-31 08:42:00,
2013-07-31 01:53:00,65.0,45.0,-100.00,NNW,333,0.0,2.0,49,-99.99,,,-99.99,,2013-07-31 08:53:00,
2013-07-31 02:02:00,66.0,47.0,-100.00,ESE,117,2.0,4.0,50,-99.99,,,-99.99,,2013-07-31 09:02:00,
2013-07-31 02:12:00,66.0,47.0,-100.00,ESE,117,2.0,4.0,50,-99.99,,,-99.99,,2013-07-31 09:12:00,
2013-07-31 02:22:00,66.0,47.0,-100.00,ESE,117,2.0,4.0,50,-99.99,,,-99.99,,2013-07-31 09:22:00,
2013-07-31 03:44:00,64.0,45.0,-100.00,NE,47,1.0,2.0,49,-99.99,,,-99.99,,2013-07-31 10:44:00,
2013-07-31 04:03:00,64.0,46.0,-100.00,ENE,68,2.0,3.0,50,-99.99,,,-99.99,,2013-07-31 11:03:00,
2013-07-31 06:12:00,60.0,46.0,-100.00,ENE,62,1.0,3.0,60,-99.99,,,-99.99,,2013-07-31 13:12:00,
2013-07-31 06:33:00,60.0,46.0,-100.00,East,88,2.0,6.0,60,-99.99,,,-99.99,,2013-07-31 13:33:00,
2013-07-31 06:43:00,60.0,46.0,-100.00,ESE,119,3.0,5.0,60,-99.99,,,-99.99,,2013-07-31 13:43:00,
2013-07-31 06:53:00,59.0,44.0,-100.00,ESE,119,3.0,5.0,56,-99.99,,,-99.99,,2013-07-31 13:53:00,
2013-07-31 07:12:00,59.0,43.0,-100.00,ENE,76,1.0,4.0,54,-99.99,,,-99.99,,2013-07-31 14:12:00,
2013-07-31 07:22:00,59.0,43.0,-100.00,ENE,76,1.0,4.0,54,-99.99,,,-99.99,,2013-07-31 14:22:00,
2013-07-31 07:43:00,64.0,45.0,-100.00,East,80,1.0,4.0,49,-99.99,,,-99.99,,2013-07-31 14:43:00,
2013-07-31 07:53:00,64.0,45.0,-100.00,East,80,1.0,4.0,49,-99.99,,,-99.99,,2013-07-31 14:53:00,
2013-07-31 08:02:00,64.0,45.0,-100.00,East,92,2.0,4.0,49,-99.99,,,-99.99,,2013-07-31 15:02:00,
2013-07-31 08:12:00,68.0,42.0,-100.00,East,92,2.0,4.0,40,-99.99,,,-99.99,,2013-07-31 15:12:00,
2013-07-31 08:33:00,71.0,43.0,-100.00,ESE,117,0.0,2.0,37,-99.99,,,-99.99,,2013-07-31 15:33:00,
2013-07-31 08:41:00,74.0,44.0,-100.00,NW,304,3.0,7.0,35,-99.99,,,-99.99,,2013-07-31 15:41:00,
2013-07-31 08:43:00,71.0,43.0,-100.00,ESE,117,0.0,2.0,37,-99.99,,,-99.99,,2013-07-31 15:43:00,
2013-07-31 09:02:00,73.0,42.0,-100.00,North,0,2.0,4.0,32,-99.99,,,-99.99,,2013-07-31 16:02:00,
2013-07-31 09:22:00,74.0,44.0,-100.00,NW,304,3.0,7.0,35,-99.99,,,-99.99,,2013-07-31 16:22:00,
2013-07-31 09:33:00,74.0,44.0,-100.00,NW,304,3.0,7.0,35,-99.99,,,-99.99,,2013-07-31 16:33:00,
2013-07-31 09:52:00,75.0,45.0,-100.00,West,272,5.0,7.0,34,-99.99,,,-99.99,,2013-07-31 16:52:00,
2013-07-31 10:02:00,75.0,45.0,-100.00,West,272,5.0,7.0,34,-99.99,,,-99.99,,2013-07-31 17:02:00,
2013-07-31 10:12:00,76.0,44.0,-100.00,WNW,299,3.0,6.0,32,-99.99,,,-99.99,,2013-07-31 17:12:00,
2013-07-31 10:22:00,76.0,44.0,-100.00,WNW,299,3.0,6.0,32,-99.99,,,-99.99,,2013-07-31 17:22:00,
2013-07-31 10:33:00,77.0,43.0,-100.00,WNW,284,3.0,6.0,29,-99.99,,,-99.99,,2013-07-31 17:33:00,
2013-07-31 10:43:00,77.0,43.0,-100.00,WNW,284,3.0,6.0,29,-99.99,,,-99.99,,2013-07-31 17:43:00,
2013-07-31 11:02:00,79.0,43.0,-100.00,West,281,4.0,7.0,27,-99.99,,,-99.99,,2013-07-31 18:02:00,
2013-07-31 11:12:00,80.0,41.0,-100.00,West,278,4.0,8.0,24,-99.99,,,-99.99,,2013-07-31 18:12:00,
2013-07-31 11:22:00,80.0,41.0,-100.00,West,278,4.0,8.0,24,-99.99,,,-99.99,,2013-07-31 18:22:00,
2013-07-31 11:32:00,84.0,35.0,-100.00,West,265,6.0,12.0,18,-99.99,,,-99.99,,2013-07-31 18:32:00,
2013-07-31 11:43:00,84.0,35.0,-100.00,West,265,6.0,12.0,18,-99.99,,,-99.99,,2013-07-31 18:43:00,
2013-07-31 11:50:00,84.0,27.0,-100.00,SSW,196,9.0,18.0,13,-99.99,,,-99.99,,2013-07-31 18:50:00,
2013-07-31 11:52:00,84.0,30.0,-100.00,SSW,200,9.0,20.0,14,-99.99,,,-99.99,,2013-07-31 18:52:00,
2013-07-31 12:02:00,84.0,30.0,-100.00,SSW,200,9.0,20.0,14,-99.99,,,-99.99,,2013-07-31 19:02:00,
2013-07-31 12:12:00,84.0,30.0,-100.00,SSW,200,9.0,20.0,14,-99.99,,,-99.99,,2013-07-31 19:12:00,
2013-07-31 12:32:00,84.0,31.0,-100.00,SSW,196,9.0,18.0,15,-99.99,,,-99.99,,2013-07-31 19:32:00,
2013-07-31 13:02:00,85.0,30.0,-100.00,SW,216,13.0,25.0,14,-99.99,,,-99.99,,2013-07-31 20:02:00,
2013-07-31 13:42:00,86.0,31.0,-100.00,SW,217,15.0,26.0,14,-99.99,,,-99.99,,2013-07-31 20:42:00,
2013-07-31 13:52:00,86.0,31.0,-100.00,SW,217,15.0,26.0,14,-99.99,,,-99.99,,2013-07-31 20:52:00,
2013-07-31 14:02:00,86.0,30.0,-100.00,SSW,206,13.0,28.0,13,-99.99,,,-99.99,,2013-07-31 21:02:00,
2013-07-31 14:12:00,86.0,30.0,-100.00,SSW,206,13.0,28.0,13,-99.99,,,-99.99,,2013-07-31 21:12:00,
2013-07-31 14:32:00,87.0,29.0,-100.00,SSW,209,13.0,26.0,13,-99.99,,,-99.99,,2013-07-31 21:32:00,
2013-07-31 14:53:00,86.0,30.0,-100.00,SSW,213,15.0,24.0,13,-99.99,,,-99.99,,2013-07-31 21:53:00,
2013-07-31 15:02:00,86.0,31.0,-100.00,SSW,205,15.0,27.0,14,-99.99,,,-99.99,,2013-07-31 22:02:00,
2013-07-31 15:12:00,86.0,31.0,-100.00,SSW,205,15.0,27.0,14,-99.99,,,-99.99,,2013-07-31 22:12:00,
2013-07-31 15:32:00,86.0,31.0,-100.00,SSW,198,14.0,24.0,14,-99.99,,,-99.99,,2013-07-31 22:32:00,
2013-07-31 15:53:00,86.0,32.0,-100.00,SSW,210,14.0,26.0,14,-99.99,,,-99.99,,2013-07-31 22:53:00,
2013-07-31 16:02:00,86.0,32.0,-100.00,SSW,210,14.0,26.0,14,-99.99,,,-99.99,,2013-07-31 23:02:00,
2013-07-31 16:21:00,86.0,32.0,-100.00,SSW,209,12.0,24.0,14,-99.99,,,-99.99,,2013-07-31 23:21:00,
2013-07-31 16:42:00,86.0,33.0,-100.00,SSW,200,13.0,21.0,15,-99.99,,,-99.99,,2013-07-31 23:42:00,
2013-07-31 16:52:00,86.0,32.0,-100.00,SSW,210,11.0,21.0,14,-99.99,,,-99.99,,2013-07-31 23:52:00,
2013-07-31 17:02:00,86.0,32.0,-100.00,SSW,210,11.0,21.0,14,-99.99,,,-99.99,,2013-08-01 00:02:00,
2013-07-31 17:22:00,86.0,34.0,-100.00,SSW,210,10.0,17.0,16,-99.99,,,-99.99,,2013-08-01 00:22:00,
2013-07-31 17:32:00,86.0,34.0,-100.00,SW,227,12.0,21.0,16,-99.99,,,-99.99,,2013-08-01 00:32:00,
2013-07-31 17:43:00,84.0,33.0,-100.00,SW,227,12.0,21.0,16,-99.99,,,-99.99,,2013-08-01 00:43:00,
2013-07-31 17:52:00,84.0,37.0,-100.00,SW,236,12.0,20.0,19,-99.99,,,-99.99,,2013-08-01 00:52:00,
2013-07-31 18:02:00,84.0,37.0,-100.00,SW,236,12.0,20.0,19,-99.99,,,-99.99,,2013-08-01 01:02:00,
2013-07-31 18:12:00,84.0,37.0,-100.00,SW,236,12.0,20.0,19,-99.99,,,-99.99,,2013-08-01 01:12:00,
2013-07-31 18:32:00,80.0,37.0,-100.00,WSW,241,14.0,24.0,21,-99.99,,,-99.99,,2013-08-01 01:32:00,
2013-07-31 18:42:00,80.0,37.0,-100.00,WSW,241,14.0,24.0,21,-99.99,,,-99.99,,2013-08-01 01:42:00,
2013-07-31 18:53:00,80.0,38.0,-100.00,SW,232,11.0,21.0,22,-99.99,,,-99.99,,2013-08-01 01:53:00,
2013-07-31 19:02:00,80.0,38.0,-100.00,SW,232,11.0,21.0,22,-99.99,,,-99.99,,2013-08-01 02:02:00,
2013-07-31 19:12:00,80.0,38.0,-100.00,SW,232,11.0,21.0,22,-99.99,,,-99.99,,2013-08-01 02:12:00,
2013-07-31 19:32:00,77.0,37.0,-100.00,WSW,251,11.0,17.0,24,-99.99,,,-99.99,,2013-08-01 02:32:00,
2013-07-31 19:43:00,76.0,38.0,-100.00,WSW,257,9.0,15.0,25,-99.99,,,-99.99,,2013-08-01 02:43:00,
2013-07-31 19:52:00,76.0,38.0,-100.00,WSW,257,9.0,15.0,25,-99.99,,,-99.99,,2013-08-01 02:52:00,
2013-07-31 20:11:00,76.0,36.0,-100.00,SW,236,5.0,12.0,24,-99.99,,,-99.99,,2013-08-01 03:11:00,
2013-07-31 20:22:00,76.0,36.0,-100.00,SW,236,5.0,12.0,24,-99.99,,,-99.99,,2013-08-01 03:22:00,
2013-07-31 20:32:00,76.0,36.0,-100.00,SW,236,5.0,12.0,24,-99.99,,,-99.99,,2013-08-01 03:32:00,
2013-07-31 21:02:00,69.0,34.0,-100.00,North,-999,-999.0,-999.0,27,-99.99,,,-99.99,,2013-08-01 04:02:00,
2013-07-31 21:12:00,69.0,34.0,-100.00,North,-999,-999.0,-999.0,27,-99.99,,,-99.99,,2013-08-01 04:12:00,
2013-07-31 21:22:00,69.0,34.0,-100.00,North,-999,-999.0,-999.0,27,-99.99,,,-99.99,,2013-08-01 04:22:00,
2013-07-31 21:33:00,69.0,36.0,-100.00,SW,217,5.0,7.0,30,-99.99,,,-99.99,,2013-08-01 04:33:00,
2013-07-31 22:02:00,70.0,33.0,-100.00,South,171,7.0,12.0,25,-99.99,,,-99.99,,2013-08-01 05:02:00,
2013-07-31 22:12:00,70.0,33.0,-100.00,South,171,7.0,12.0,25,-99.99,,,-99.99,,2013-08-01 05:12:00,
2013-07-31 22:32:00,70.0,32.0,-100.00,South,175,6.0,13.0,24,-99.99,,,-99.99,,2013-08-01 05:32:00,
2013-07-31 22:43:00,70.0,32.0,-100.00,SSE,148,5.0,10.0,25,-99.99,,,-99.99,,2013-08-01 05:43:00,
2013-07-31 22:53:00,70.0,32.0,-100.00,SSE,148,5.0,10.0,25,-99.99,,,-99.99,,2013-08-01 05:53:00,
2013-07-31 23:02:00,69.0,34.0,-100.00,SE,133,5.0,12.0,28,-99.99,,,-99.99,,2013-08-01 06:02:00,
2013-07-31 23:12:00,69.0,34.0,-100.00,SE,133,5.0,12.0,28,-99.99,,,-99.99,,2013-08-01 06:12:00,
2013-07-31 23:22:00,69.0,34.0,-100.00,SE,133,5.0,12.0,28,-99.99,,,-99.99,,2013-08-01 06:22:00,
2013-07-31 23:32:00,68.0,34.0,-100.00,South,185,5.0,10.0,29,-99.99,,,-99.99,,2013-08-01 06:32:00,
2013-07-31 23:42:00,68.0,34.0,-100.00,South,185,5.0,10.0,29,-99.99,,,-99.99,,2013-08-01 06:42:00,
2013-07-31 23:52:00,68.0,34.0,-100.00,SSE,158,7.0,16.0,28,-99.99,,,-99.99,,2013-08-01 06:52:00,